TimeCST,TemperatureF,Dew PointF,Humidity,Sea Level PressureIn,VisibilityMPH,Wind Direction,Wind SpeedMPH,Gust SpeedMPH,PrecipitationIn,Events,Conditions,WindDirDegrees,DateUTC
12:52 AM,26.1,10.9,53,30.18,10.0,WSW,3.5,-,N/A,,Clear,250,2013-02-19 06:52:00
1:52 AM,19.9,10.0,65,30.19,10.0,NW,4.6,-,N/A,,Clear,310,2013-02-19 07:52:00
2:52 AM,21.0,10.9,65,30.20,10.0,WNW,8.1,-,N/A,,Clear,290,2013-02-19 08:52:00
3:52 AM,19.0,10.0,68,30.21,10.0,WNW,4.6,-,N/A,,Clear,300,2013-02-19 09:52:00
4:52 AM,21.9,12.9,68,30.21,10.0,NW,9.2,-,N/A,,Clear,310,2013-02-19 10:52:00
5:52 AM,18.0,10.9,74,30.24,10.0,NNW,4.6,-,N/A,,Clear,340,2013-02-19 11:52:00
6:52 AM,15.1,10.0,80,30.28,10.0,NNW,6.9,-,N/A,,Clear,330,2013-02-19 12:52:00
7:52 AM,17.1,12.0,81,30.32,9.0,North,6.9,-,N/A,,Clear,350,2013-02-19 13:52:00
8:52 AM,25.0,16.0,69,30.33,10.0,NE,10.4,-,N/A,,Clear,40,2013-02-19 14:52:00
9:52 AM,30.9,16.0,54,30.32,10.0,ENE,11.5,-,N/A,,Clear,70,2013-02-19 15:52:00
10:52 AM,36.0,16.0,44,30.31,10.0,East,11.5,-,N/A,,Clear,90,2013-02-19 16:52:00
12:52 PM,42.1,16.0,35,30.26,10.0,ESE,13.8,-,N/A,,Clear,110,2013-02-19 18:52:00
1:52 PM,45.0,16.0,31,30.22,10.0,ESE,12.7,19.6,N/A,,Clear,120,2013-02-19 19:52:00
2:52 PM,48.0,16.0,28,30.17,10.0,SE,15.0,21.9,N/A,,Clear,140,2013-02-19 20:52:00
3:52 PM,46.0,16.0,30,30.15,10.0,ESE,16.1,-,N/A,,Clear,120,2013-02-19 21:52:00
4:52 PM,46.9,17.1,30,30.13,10.0,SE,18.4,25.3,N/A,,Clear,140,2013-02-19 22:52:00
6:52 PM,37.0,17.1,44,30.15,10.0,ESE,13.8,-,N/A,,Clear,120,2013-02-20 00:52:00
7:52 PM,36.0,17.1,46,30.17,10.0,SE,16.1,-,N/A,,Clear,130,2013-02-20 01:52:00
8:52 PM,35.1,18.0,50,30.17,10.0,SE,18.4,-,N/A,,Clear,130,2013-02-20 02:52:00
9:52 PM,34.0,18.0,52,30.16,10.0,SE,17.3,-,N/A,,Clear,130,2013-02-20 03:52:00
10:52 PM,30.9,17.1,57,30.15,10.0,ESE,12.7,-,N/A,,Clear,120,2013-02-20 04:52:00
11:52 PM,30.0,17.1,59,30.13,10.0,ESE,12.7,-,N/A,,Clear,120,2013-02-20 05:52:00